Location: Caltech
(34.1382°N, 118.1253°W)
Time: 15:08:36
(UTC-07:00)

Cosmos 1980 Rocket - Visible Passes

Search period start: 23 April 2014 00:00
Search period end: 03 May 2014 00:00
Orbit: 831 x 849 km, 71.0° (Epoch: 23 April)

Date Brightness Start Highest point End Pass type
(mag) Time Alt. Az. Time Alt. Az. Time Alt. Az.
23 Apr 3.4 05:18:31 10° S 05:23:49 44° ESE 05:29:07 10° NE visible
24 Apr 3.5 05:03:02 10° S 05:08:16 41° ESE 05:13:29 10° NE visible
25 Apr 3.5 04:47:34 10° S 04:52:43 38° ESE 04:57:52 10° NE visible
26 Apr 3.6 04:32:06 10° SSE 04:37:10 35° ESE 04:42:13 10° NE visible
27 Apr 3.7 04:16:39 10° SSE 04:21:37 33° ESE 04:26:34 10° NE visible
28 Apr 3.8 04:01:44 12° SSE 04:06:04 30° ESE 04:10:55 10° NE visible
29 Apr 3.8 03:47:08 16° SSE 03:50:31 28° ESE 03:55:15 10° NE visible
29 Apr 3.0 05:29:20 10° SW 05:34:21 33° WNW 05:39:23 10° N visible
30 Apr 3.9 03:32:27 19° SE 03:34:59 26° ESE 03:39:35 10° NE visible
30 Apr 3.0 05:14:16 13° SW 05:18:46 35° WNW 05:23:53 10° N visible
01 May 3.9 03:17:42 21° SE 03:19:26 25° ESE 03:23:54 10° NE visible
01 May 2.9 04:59:30 18° WSW 05:03:10 37° WNW 05:08:22 10° N visible
02 May 3.9 03:02:52 22° ESE 03:03:54 23° E 03:08:12 10° NE visible
02 May 2.8 04:44:39 23° WSW 04:47:35 40° WNW 04:52:51 10° N visible
